Hourly Data Report for October 04, 2017

All times are specified in Local Standard Time (LST). Add 1 hour to adjust for Daylight Saving Time where and when it is observed.

GRISE FIORD CLIMATE
NUNAVUT

76°25'22.040" N
82°54'08.020" W
44.50 m
2402351
71971
NGC

Download Data

Hourly Data (October 2017)
Hourly Data Report for October 4, 2017
Temp Definition
°C
Dew Point Temp Definition
°C
Rel Hum Definition
%
Wind Dir Definition
10's deg

Wind Spd Definition
km/h
Visibility Definition
km
Stn Press Definition
kPa
Hmdx Definition


Wind Chill Definition


Weather Definition


TIME
00:00 -1.0 -8.6 56 4 36   99.54   -8 LegendNANA
01:00 -1.4 -9.1 56 6 45   99.52   -10 LegendNANA
02:00 -0.9 -10.2 49 5 42   99.54   -9 LegendNANA
03:00 0.0 -10.0 47 3 54   99.48   -8 LegendNANA
04:00 -1.5 -9.8 53 1 50   99.50   -10 LegendNANA
05:00 -0.8 -9.4 52 6 40   99.47   -8 LegendNANA
06:00 -0.5 -9.3 51 4 24   99.53   -6 LegendNANA
07:00 -0.6 -8.4 55 2 16   99.45   -5 LegendNANA
08:00 -1.7 -7.8 63 7 24   99.54   -8 LegendNANA
09:00 -1.3 -7.3 64 9 28   99.54   -8 LegendNANA
10:00 -1.7 -6.3 70 5 22   99.54   -8 LegendNANA
11:00 -1.5 -7.0 66 7 44   99.46   -10 LegendNANA
12:00 -1.9 -7.3 67 6 45   99.47   -10 LegendNANA
13:00 -1.1 -7.5 62 5 37   99.41   -9 LegendNANA
14:00 -2.3 -8.2 64 2 58   99.43   -12 LegendNANA
15:00 -1.6 -7.9 63 2 48   99.45   -10 LegendNANA
16:00 -0.1 -5.9 65 4 30   99.46   -7 LegendNANA
17:00 -0.1 -6.4 63 3 27   99.46   -6 LegendNANA
18:00 1.0 -5.7 61 4 16   99.51     LegendNANA
19:00 0.3 -5.8 64 4 17   99.54     LegendNANA
20:00 0.5 -7.1 57 2 21   99.52     LegendNANA
21:00 0.3 -7.1 58 35 37   99.51     LegendNANA
22:00 1.5 -6.8 54 35 42   99.48     LegendNANA
23:00 1.2 -6.1 58 24 8   99.50     LegendNANA

Notes on Data Quality.

Legend

  • E = Estimated
  • M = Missing
  • NA = Not Available
  • ‡ = Partner data that is not subject to review by the National Climate Archives
Date modified: